Flag for Brunei Weather past 2 weeks in Bandar Seri Begawan, Brunei

Now
86 °F

Broken clouds.


Feels Like: 92 °F
Forecast: 77 / 89 °F
Wind: 2 mph from Northwest

Location: Brunei Airport

Current Time: Aug 31, 2014 at 12:19:54 PM

Latest Report: Aug 31, 2014 at 12:00 PM


Visibility: N/A

Pressure: 29.83 "Hg

Humidity: 62%

Dew point: 72 °F

Location of Bandar Seri BegawanLocation

Historic Weather in Bandar Seri Begawan — Graph

°F

Bandar Seri Begawan temperature yesterday

Maximum temperature yesterday: 88 °F (at 1:00 PM)
Minimum temperature yesterday: 73 °F (at 12:00 AM)
Average temperature yesterday: 80 °F

Past Weeks' High & Low Weather Summary

 TemperatureHumidityPressure
High90 °F (Aug 23, 2:00 PM)100% (Aug 16, 11:00 PM)29.95 "Hg (Aug 16, 11:00 PM)
Low73 °F (Aug 29, 10:30 PM)59% (Aug 18, 3:30 PM)29.71 "Hg (Aug 24, 4:30 PM)
Average81 °F85%29.84 "Hg
* Reported Aug 16 11:00 AM — Aug 31 11:30 AM, Bandar Seri Begawan, Weather by CustomWeather, © 2014

Note: Actual official high and low records may vary slightly from our data, if they occured in-between our weather recording intervals... More about our weather records

Advertising

Bandar Seri Begawan weather history for previous 24 hours

 ConditionsComfort  
Time TempWeatherWind HumidityBarometerVisibility
11:30 AM
Aug 31
84 °FBroken clouds.2 mph66%29.83 "HgN/A
10:30 AM82 °FPartly sunny.2 mph74%29.83 "HgN/A
10:00 AM81 °FBroken clouds.2 mph79%29.83 "HgN/A
9:30 AM81 °FPartly sunny.2 mph84%29.83 "HgN/A
9:00 AM79 °FPartly sunny.2 mph89%29.83 "HgN/A
8:30 AM79 °FBroken clouds.1 mph89%29.83 "HgN/A
8:00 AM77 °FBroken clouds.2 mph94%29.83 "HgN/A
7:30 AM77 °FBroken clouds.3 mph94%29.80 "HgN/A
7:00 AM77 °FBroken clouds.3 mph94%29.80 "HgN/A
6:30 AM77 °FBroken clouds.2 mph94%29.80 "HgN/A
6:00 AM77 °FPassing clouds.5 mph94%29.80 "HgN/A
5:30 AM77 °FPassing clouds.3 mph94%29.80 "HgN/A
4:30 AM77 °FPassing clouds.7 mph94%29.80 "HgN/A
4:00 AM77 °FPassing clouds.5 mph94%29.80 "HgN/A
3:30 AM77 °FPassing clouds.2 mph94%29.83 "HgN/A
3:00 AM77 °FPassing clouds.2 mph94%29.83 "HgN/A
2:30 AM79 °FPartly cloudy.2 mph89%29.86 "HgN/A
2:00 AM79 °FPartly cloudy.3 mph89%29.86 "HgN/A
1:30 AM77 °FSprinkles. Partly cloudy.3 mph94%29.86 "Hg5 mi
1:00 AM79 °FSprinkles. Partly cloudy.5 mph94%29.89 "Hg5 mi
12:30 AM79 °FSprinkles. Partly cloudy.3 mph94%29.89 "Hg5 mi
12:00 AM79 °FPartly cloudy.2 mph89%29.89 "HgN/A
11:30 PM
Aug 30
79 °FPartly cloudy.2 mph89%29.89 "HgN/A
11:00 PM79 °FPartly cloudy.2 mph89%29.89 "HgN/A
10:30 PM79 °FPartly cloudy.2 mph89%29.89 "HgN/A
10:00 PM79 °FPartly cloudy.3 mph89%29.86 "HgN/A
9:30 PM81 °FPartly cloudy.2 mph84%29.86 "HgN/A
9:00 PM81 °FPartly cloudy.2 mph84%29.86 "HgN/A
8:30 PM81 °FPartly cloudy.2 mph84%29.83 "HgN/A
8:00 PM81 °FPassing clouds.1 mph84%29.83 "HgN/A
7:30 PM82 °FPassing clouds.2 mph74%29.83 "HgN/A
7:00 PM82 °FPartly cloudy.3 mph74%29.83 "HgN/A
6:30 PM82 °FPartly cloudy.3 mph74%29.83 "HgN/A
6:00 PM82 °FBroken clouds.5 mph74%29.83 "HgN/A
5:30 PM82 °FBroken clouds.8 mph74%29.83 "HgN/A
5:00 PM84 °FThunderstorms. Cloudy.3 mph74%29.80 "HgN/A
4:30 PM84 °FPartly sunny.10 mph70%29.80 "HgN/A
4:00 PM84 °FPartly sunny.10 mph70%29.80 "HgN/A
3:30 PM86 °FPartly sunny.12 mph66%29.80 "HgN/A
3:00 PM86 °FPartly sunny.12 mph70%29.80 "HgN/A
2:30 PM86 °FBroken clouds.13 mph66%29.80 "HgN/A
2:00 PM88 °FBroken clouds.8 mph59%29.83 "HgN/A
1:30 PM86 °FBroken clouds.10 mph62%29.83 "HgN/A
1:00 PM88 °FPartly sunny.8 mph62%29.83 "HgN/A
12:30 PM86 °FPartly sunny.7 mph66%29.86 "HgN/A
12:00 PM86 °FPartly sunny.8 mph66%29.86 "HgN/A
Weather by CustomWeather, © 2014

See weather overviewHow to use our weather pages